Find Starlink 4800

NORAD ID: 53854 Int'l Des: 2022-114 Owner: SPXS Country: US Constellation: starlink operational
LEOCIRCULAR

現在のビュー

3D地球を読み込み中...

Starlink 4800について

説明を読み込み中...

次回通過

Passes for default location (London). Set your location on the main map for personalized predictions.

高度履歴

Loading altitude history...

軌道要素

1 53854U 22114AN 26149.80129298 -.00001185 00000-0 -56358-4 0 9994
2 53854 53.1999 280.2196 0001573 97.9657 262.1514 15.08854646205353
Epoch: May 29, 2026 • Age: 22 hours

現在のステータス

高度 554.2 km
速度 7.58 km/s
衛星直下点 -40.70°S, 89.37°E
打ち上げ日 Sep 19, 2022
運用期間 3.6 years
タイプ internet

技術仕様

分類 Payload
質量 305.00 kg
乾燥質量 290.00 kg
総質量 305.00 kg
長さ 0.20 m
直径 2.80 m
スパン 9.00 m
形状 Box + pan
製造者 SPXS
バスタイプ Starlink
フェーズステータス In Orbit
所有者/国 SPXS/US

Most Searched